Weather History for Kansas City, MO

Change the Weather History Date:

Wednesday, April 3, 2013

  Actual Average Record
Temperature  
Mean Temperature 44 °F -  
Max Temperature 53 °F 60 °F 91 °F (2011)
Min Temperature 34 °F 41 °F 26 °F (2002)
Degree Days  
Heating Degree Days 22    
Moisture  
Dew Point 21 °F    
Average Humidity 43    
Maximum Humidity 64    
Minimum Humidity 29    
Precipitation  
Precipitation 0.00 in - - ()
Sea Level Pressure  
Sea Level Pressure 30.31 in    
Wind  
Wind Speed 7 mph (ENE)    
Max Wind Speed 15 mph    
Max Gust Speed 18 mph    
Visibility 10 miles    
Events      
Averages and records for this station are not official NWS values.
T = Trace of Precipitation, MM = Missing Value Source: NWS Daily Summary

Daily Weather History Graph

Daily Weather History Graph

Search for Another Location

Airport:

Trip Planner

Search our weather history database for the weather conditions in past years. The results will help you decide how hot, cold, wet, or windy it might be!

Date:

Astronomy

Apr. 03, 2013 Rise Set
Actual Time 6:59 AM CDT 7:44 PM CDT
Civil Twilight 6:32 AM CDT 8:11 PM CDT
Nautical Twilight 6:00 AM CDT 8:43 PM CDT
Astronomical Twilight 5:27 AM CDT 9:16 PM CDT
Moon 2:38 AM CDT (4/3) 1:00 PM CDT (4/3)
Length of Visible Light 13h 39m
Length of Day
12h 45m
Last Quarter, 44% of the Moon is Illuminated
Apr 3
Last Quarter
Apr 10
New
Apr 18
First Quarter
Apr 25
Full
May 2
Last Quarter

Hourly Weather History & Observations

Time (CDT) Temp. Windchill Dew Point Humidity Pressure Visibility Wind Dir Wind Speed Gust Speed Precip Events Conditions
12:54 AM 41.0 °F 39.0 °F 21.0 °F 45% 30.31 in 10.0 mi East 3.5 mph - N/A   Clear
1:54 AM 39.0 °F 35.7 °F 23.0 °F 53% 30.30 in 10.0 mi NE 4.6 mph - N/A   Clear
2:54 AM 36.0 °F 32.1 °F 23.0 °F 59% 30.31 in 10.0 mi ENE 4.6 mph - N/A   Clear
3:54 AM 35.1 °F 27.4 °F 23.0 °F 61% 30.32 in 10.0 mi ENE 10.4 mph - N/A   Clear
4:54 AM 35.1 °F 29.3 °F 23.0 °F 61% 30.34 in 10.0 mi East 6.9 mph - N/A   Clear
5:54 AM 34.0 °F 28.0 °F 23.0 °F 64% 30.35 in 10.0 mi ENE 6.9 mph - N/A   Clear
6:54 AM 34.0 °F 27.2 °F 23.0 °F 64% 30.36 in 10.0 mi ENE 8.1 mph - N/A   Clear
7:54 AM 35.1 °F 28.6 °F 24.1 °F 64% 30.38 in 10.0 mi East 8.1 mph - N/A   Clear
8:54 AM 39.0 °F 30.6 °F 21.9 °F 50% 30.37 in 10.0 mi ENE 15.0 mph - N/A   Clear
9:54 AM 44.1 °F 38.6 °F 21.0 °F 40% 30.38 in 10.0 mi East 10.4 mph - N/A   Clear
10:54 AM 46.0 °F 41.0 °F 19.9 °F 35% 30.37 in 10.0 mi ENE 10.4 mph - N/A   Clear
11:54 AM 48.9 °F - 21.0 °F 33% 30.37 in 10.0 mi East 9.2 mph - N/A   Clear
12:54 PM 50.0 °F - 21.0 °F 32% 30.34 in 10.0 mi East 9.2 mph - N/A   Clear
1:54 PM 51.1 °F - 21.9 °F 32% 30.34 in 10.0 mi NE 9.2 mph - N/A   Clear
2:54 PM 53.1 °F - 23.0 °F 31% 30.30 in 10.0 mi ENE 12.7 mph 18.4 mph N/A   Clear
3:54 PM 51.1 °F - 23.0 °F 33% 30.28 in 10.0 mi East 8.1 mph - N/A   Clear
4:54 PM 51.1 °F - 23.0 °F 33% 30.27 in 10.0 mi East 9.2 mph - N/A   Clear
5:54 PM 51.1 °F - 23.0 °F 33% 30.25 in 10.0 mi East 9.2 mph - N/A   Clear
6:54 PM 50.0 °F - 21.0 °F 32% 30.25 in 10.0 mi East 11.5 mph - N/A   Clear
7:54 PM 48.0 °F - 17.1 °F 29% 30.25 in 10.0 mi ESE 8.1 mph - N/A   Clear
8:54 PM 46.9 °F - 16.0 °F 29% 30.25 in 10.0 mi East 6.9 mph - N/A   Clear
9:54 PM 46.0 °F 43.1 °F 18.0 °F 33% 30.26 in 10.0 mi East 5.8 mph - N/A   Clear
10:54 PM 45.0 °F 42.6 °F 19.0 °F 36% 30.26 in 10.0 mi ENE 4.6 mph - N/A   Scattered Clouds
11:54 PM 43.0 °F 40.3 °F 19.9 °F 40% 30.25 in 10.0 mi ENE 4.6 mph - N/A   Clear